DW8502 Weather Reports


time (UTC)temp
C
wind
direction
speed
KPH
gust
KPH
rain 1hr
cm
rain 24hr
cm
rain mn
cm
humidity
%
barometer
mb
20260507020627 14 232 1.6 4.8 0.00 0.20 0.20 99 1004.9
20260507015728 14 242 1.6 4.8 0.00 0.20 0.20 99 1005.0
20260507014828 14 240 1.6 6.4 0.00 0.20 0.20 99 1004.8
20260507013927 14 231 1.6 4.8 0.00 0.20 0.20 99 1004.9
20260507013027 14 241 1.6 6.4 0.00 0.20 0.20 99 1004.9
20260507012127 14 263 1.6 6.4 0.00 0.20 0.20 99 1005.1
20260507010327 14 243 1.6 6.4 0.00 0.20 0.20 99 1005.2
20260507005427 14 240 1.6 6.4 0.00 0.20 0.20 99 1005.3
20260507004527 14 239 1.6 6.4 0.00 0.20 0.20 99 1005.3
20260507003627 14 242 1.6 8.0 0.00 0.20 0.20 99 1005.3
20260507001827 13 241 1.6 6.4 0.05 0.20 0.20 99 1005.1
20260507000927 14 223 0.0 6.4 0.08 0.20 0.20 98 1005.1
20260507000032 14 254 1.6 9.7 0.10 0.20 0.20 98 1005.1
20260506235127 14 268 1.6 4.8 0.10 0.20 0.20 98 1005.0
20260506234227 14 241 1.6 6.4 0.10 0.20 0.20 98 1005.0
20260506233327 14 229 1.6 6.4 0.08 0.18 0.18 98 1004.9
20260506232427 14 233 1.6 9.7 0.05 0.15 0.15 98 1004.9
20260506231527 14 233 1.6 9.7 0.05 0.15 0.15 98 1005.0
20260506230627 14 235 1.6 8.0 0.00 0.10 0.10 98 1005.0
20260506225727 14 239 1.6 4.8 0.00 0.10 0.10 98 1004.9
20260506224827 14 232 1.6 4.8 0.00 0.10 0.10 98 1005.0
20260506223927 14 232 1.6 6.4 0.00 0.10 0.10 98 1004.9
20260506223027 14 238 1.6 8.0 0.00 0.10 0.10 98 1004.8
20260506222127 15 205 1.6 9.7 0.00 0.10 0.10 98 1004.9
20260506220328 15 249 3.2 11.3 0.03 0.10 0.10 98 1005.3
20260506215428 15 244 1.6 8.0 0.03 0.10 0.10 98 1005.3
20260506214527 15 234 1.6 8.0 0.05 0.10 0.10 98 1005.3
20260506213627 15 277 1.6 6.4 0.05 0.10 0.10 98 1005.3
20260506212727 15 283 1.6 4.8 0.08 0.10 0.10 97 1005.5
20260506211827 15 232 1.6 6.4 0.08 0.10 0.10 97 1005.5
20260506210927 15 235 1.6 6.4 0.05 0.08 0.08 97 1005.7
20260506210027 15 240 1.6 6.4 0.05 0.08 0.08 97 1005.6
20260506205127 15 231 1.6 6.4 0.08 0.08 0.08 96 1005.7
20260506204227 15 234 1.6 6.4 0.05 0.05 0.05 96 1005.8
20260506203327 15 233 3.2 8.0 0.03 0.03 0.03 95 1005.9
20260506202427 15 229 1.6 11.3 0.03 0.03 0.03 95 1005.9
20260506200627 16 242 3.2 8.0 0.03 0.03 0.03 94 1006.0
20260506195728 16 244 3.2 8.0 0.03 0.03 0.03 94 1006.1
20260506194827 16 243 3.2 9.7 0.00 0.00 0.00 92 1006.0
20260506193027 17 255 1.6 4.8 0.00 0.00 0.00 91 1006.1
20260506192126 17 241 3.2 9.7 0.00 0.00 0.00 88 1006.1
20260506191226 17 252 3.2 9.7 0.00 0.00 0.00 87 1006.2
20260506190326 18 247 3.2 8.0 0.00 0.00 0.00 84 1006.2
20260506185426 18 247 4.8 9.7 0.00 0.00 0.00 80 1006.2
20260506184527 19 259 4.8 8.0 0.00 0.00 0.00 77 1006.2
20260506183628 20 258 4.8 12.9 0.00 0.00 0.00 75 1006.2
20260506182727 20 252 4.8 11.3 0.00 0.00 0.00 74 1006.4
20260506181827 21 250 4.8 11.3 0.00 0.00 0.00 73 1006.3
20260506180927 21 246 4.8 12.9 0.00 0.00 0.00 71 1006.4
20260506180026 21 239 4.8 12.9 0.00 0.00 0.00 71 1006.3
20260506175127 21 235 4.8 12.9 0.00 0.00 0.00 70 1006.5
20260506174227 21 242 3.2 9.7 0.00 0.00 0.00 69 1006.6
20260506173328 21 237 4.8 14.5 0.00 0.00 0.00 68 1006.8
20260506172426 22 252 4.8 16.1 0.00 0.00 0.00 68 1006.8
20260506171526 22 248 3.2 16.1 0.00 0.00 0.00 68 1006.8
20260506170626 22 254 4.8 16.1 0.00 0.00 0.00 69 1006.7
20260506165726 22 246 6.4 17.7 0.00 0.00 0.00 67 1006.6
20260506164827 22 248 4.8 16.1 0.00 0.00 0.00 68 1006.8
20260506163926 22 244 3.2 9.7 0.00 0.00 0.00 69 1007.0
20260506163026 22 248 3.2 12.9 0.00 0.00 0.00 68 1007.1
20260506162126 22 237 4.8 12.9 0.00 0.00 0.00 68 1007.2
20260506161226 22 236 3.2 11.3 0.00 0.00 0.00 68 1007.3
20260506160326 22 223 4.8 12.9 0.00 0.00 0.00 67 1007.5
20260506155426 22 224 3.2 14.5 0.00 0.00 0.00 67 1007.6
20260506154526 22 228 4.8 17.7 0.00 0.00 0.00 69 1007.7
20260506153626 22 236 3.2 11.3 0.00 0.00 0.00 68 1007.9
20260506152726 22 251 3.2 11.3 0.00 0.00 0.00 68 1007.8
20260506151826 22 231 4.8 12.9 0.00 0.00 0.00 69 1008.0
20260506150926 22 233 3.2 11.3 0.00 0.00 0.00 71 1008.1
20260506150027 21 226 3.2 9.7 0.00 0.00 0.00 70 1008.2
20260506144226 21 253 4.8 14.5 0.00 0.00 0.00 70 1008.2
20260506143326 21 243 3.2 9.7 0.00 0.00 0.00 70 1008.1
20260506142427 21 236 4.8 12.9 0.00 0.00 0.00 71 1008.0
20260506141526 21 233 3.2 8.0 0.00 0.00 0.00 71 1008.0
20260506140626 21 242 3.2 11.3 0.00 0.00 0.00 72 1008.1
20260506135727 21 238 4.8 9.7 0.00 0.00 0.00 72 1008.1
20260506134826 21 235 3.2 14.5 0.00 0.00 0.00 72 1008.2
20260506133926 21 252 3.2 12.9 0.00 0.00 0.00 75 1008.0
20260506133026 20 249 3.2 9.7 0.00 0.00 0.00 77 1008.4
20260506132126 19 248 3.2 9.7 0.00 0.00 0.00 80 1008.7
20260506131226 18 220 3.2 8.0 0.00 0.00 0.00 81 1008.8
20260506125426 18 215 1.6 8.0 0.00 0.00 0.00 83 1008.8
20260506124526 17 228 1.6 6.4 0.00 0.00 0.00 84 1008.8
20260506122726 17 242 1.6 6.4 0.00 0.00 0.00 86 1008.8
20260506121826 17 246 1.6 6.4 0.00 0.00 0.00 87 1008.8
20260506120926 16 255 1.6 4.8 0.00 0.00 0.00 88 1008.7
20260506115126 16 255 1.6 6.4 0.00 0.00 0.00 90 1009.1
20260506114226 16 243 1.6 4.8 0.00 0.00 0.00 90 1009.2
20260506113326 16 228 1.6 8.0 0.00 0.00 0.00 90 1009.3
20260506112426 15 228 3.2 8.0 0.00 0.00 0.00 91 1009.3
20260506110626 15 248 1.6 6.4 0.00 0.00 0.00 92 1009.2
20260506105726 15 247 1.6 4.8 0.00 0.00 0.00 92 1009.1
20260506103926 15 235 1.6 4.8 0.00 0.00 0.00 91 1009.2
20260506103026 15 233 1.6 4.8 0.00 0.00 0.00 91 1009.3
20260506102126 15 245 1.6 4.8 0.00 0.00 0.00 91 1009.2
20260506101226 15 258 1.6 4.8 0.00 0.00 0.00 91 1009.3
20260506095427 15 275 1.6 6.4 0.00 0.00 0.00 91 1009.0
20260506094526 15 281 1.6 4.8 0.00 0.00 0.00 90 1008.9
20260506093626 15 252 0.0 4.8 0.00 0.00 0.00 90 1008.9
20260506092726 15 257 1.6 6.4 0.00 0.00 0.00 90 1009.0
20260506091826 15 282 1.6 6.4 0.00 0.00 0.00 90 1009.0
20260506090926 15 273 1.6 6.4 0.00 0.00 0.00 90 1009.0
20260506090026 15 232 1.6 8.0 0.00 0.00 0.00 89 1009.0
20260506085126 15 268 1.6 8.0 0.00 0.00 0.00 89 1009.1
20260506083326 15 265 1.6 6.4 0.00 0.00 0.00 88 1009.2
20260506082426 15 251 1.6 6.4 0.00 0.00 0.00 88 1009.1
20260506080626 15 263 1.6 6.4 0.00 0.00 0.00 87 1009.2
20260506073026 16 255 1.6 8.0 0.00 0.00 0.00 86 1009.3
20260506072126 16 245 3.2 11.3 0.00 0.00 0.00 86 1009.2
20260506071226 16 253 1.6 11.3 0.00 0.00 0.00 86 1009.1
20260506070326 16 235 1.6 9.7 0.00 0.00 0.00 86 1009.0
20260506061826 16 252 3.2 11.3 0.00 0.00 0.00 83 1009.1
20260506060926 16 258 1.6 8.0 0.00 0.00 0.00 82 1009.0
20260506050626 17 239 1.6 9.7 0.00 0.00 0.00 78 1009.4
20260506044827 17 272 3.2 9.7 0.00 0.00 0.00 78 1009.4
20260506043926 17 246 3.2 8.0 0.00 0.00 0.00 77 1009.5
20260506042126 17 255 3.2 12.9 0.00 0.00 0.00 76 1009.3
20260506041227 17 242 3.2 12.9 0.00 0.00 0.00 76 1009.5
20260506035426 17 251 3.2 9.7 0.00 0.00 0.00 76 1009.4
20260506033626 17 252 3.2 11.3 0.00 0.00 0.00 75 1009.3
20260506031826 17 243 3.2 11.3 0.00 0.00 0.00 75 1009.2
20260506030926 17 244 3.2 8.0 0.00 0.00 0.00 75 1009.2
20260506030026 17 250 3.2 8.0 0.00 0.00 0.00 75 1009.2
20260506025126 17 247 3.2 9.7 0.00 0.00 0.00 75 1009.1
20260506024226 17 240 1.6 8.0 0.00 0.00 0.00 75 1009.2
20260506023325 17 259 3.2 9.7 0.00 0.00 0.00 75 1009.3
20260506022425 17 247 3.2 9.7 0.00 0.00 0.00 75 1009.3
20260506021526 17 259 3.2 9.7 0.00 0.00 0.00 75 1009.3